ADR314C LJLJ-GMMN

Flight info

Callsign ADR314C
Flight time 3h 17m
Altitude 35000
Route MODRO1Z MODRO DCT SOVOX DCT OSMEB DCT BORDI DCT PADKO UM984 DIVKO G7 MAMES M984 BISBA DCT RODRA/N0447F370 M985 PIMOS N869 GALTO UB11 TUSOR
Aircraft A320/M-SDE3FGHIRWY/LB1

Departure

Time 2026-04-29 05:07
Airport Ljubljana Jože Pučnik Airport (LJLJ)

Arrival

Time 2026-04-29 08:25
Airport Mohammed V International Airport (GMMN)
Time Latitude Longitude Altitude Speed Heading
2026-04-29 03:42 46.22979 14.45513 1258 ft 0 kts 36°
2026-04-29 04:58 46.22972 14.45505 1258 ft 3 kts 34°
2026-04-29 04:58 46.22955 14.45491 1260 ft 3 kts 22°
2026-04-29 04:58 46.22936 14.45482 1258 ft 3 kts
2026-04-29 04:58 46.22918 14.45484 1264 ft 3 kts 324°
2026-04-29 04:59 46.22912 14.45492 1268 ft 0 kts 306°
2026-04-29 05:01 46.22916 14.45484 1262 ft 2 kts 306°
2026-04-29 05:01 46.22925 14.45466 1263 ft 3 kts 306°
2026-04-29 05:01 46.22937 14.45442 1268 ft 1 kts 306°
2026-04-29 05:02 46.22942 14.45428 1258 ft 1 kts 288°
2026-04-29 05:02 46.22937 14.45416 1264 ft 2 kts 239°
2026-04-29 05:02 46.22924 14.45401 1264 ft 4 kts 220°
2026-04-29 05:02 46.22899 14.45372 1259 ft 5 kts 218°
2026-04-29 05:03 46.22868 14.45338 1261 ft 6 kts 216°
2026-04-29 05:03 46.22848 14.45290 1261 ft 6 kts 281°
2026-04-29 05:03 46.22875 14.45233 1262 ft 10 kts 308°
2026-04-29 05:03 46.22929 14.45126 1262 ft 16 kts 305°
2026-04-29 05:04 46.22994 14.44999 1267 ft 16 kts 307°
2026-04-29 05:04 46.23058 14.44874 1270 ft 15 kts 306°
2026-04-29 05:04 46.23122 14.44751 1272 ft 15 kts 306°
2026-04-29 05:04 46.23184 14.44630 1273 ft 15 kts 306°
2026-04-29 05:05 46.23244 14.44512 1276 ft 14 kts 306°
2026-04-29 05:05 46.23304 14.44396 1278 ft 14 kts 306°
2026-04-29 05:05 46.23362 14.44282 1281 ft 14 kts 306°
2026-04-29 05:05 46.23399 14.44160 1283 ft 13 kts 263°
2026-04-29 05:06 46.23326 14.44081 1283 ft 15 kts 187°
2026-04-29 05:06 46.23221 14.44124 1281 ft 17 kts 148°
2026-04-29 05:06 46.23106 14.44316 1277 ft 43 kts 126°
2026-04-29 05:06 46.22796 14.44927 1270 ft 105 kts 126°
2026-04-29 05:07 46.22256 14.45982 1254 ft 154 kts 127°
2026-04-29 05:07 46.21551 14.47343 1463 ft 173 kts 126°
2026-04-29 05:07 46.20828 14.48725 2075 ft 174 kts 127°
2026-04-29 05:07 46.20093 14.50122 2747 ft 174 kts 125°
2026-04-29 05:08 46.19374 14.51517 3342 ft 173 kts 123°
2026-04-29 05:08 46.18659 14.52915 3923 ft 173 kts 124°
2026-04-29 05:08 46.17903 14.54263 4445 ft 176 kts 137°
2026-04-29 05:08 46.16732 14.54992 4699 ft 200 kts 176°
2026-04-29 05:09 46.15346 14.54340 4919 ft 227 kts 219°
2026-04-29 05:09 46.14224 14.52600 5181 ft 250 kts 230°
2026-04-29 05:09 46.13117 14.50520 5590 ft 269 kts 232°
2026-04-29 05:09 46.12008 14.48321 6384 ft 272 kts 233°
2026-04-29 05:10 46.10898 14.46114 7231 ft 272 kts 233°
2026-04-29 05:10 46.09782 14.43921 8044 ft 272 kts 234°
2026-04-29 05:10 46.08663 14.41755 8828 ft 273 kts 234°
2026-04-29 05:10 46.07516 14.39563 9638 ft 275 kts 234°
2026-04-29 05:11 46.06462 14.37279 10389 ft 274 kts 245°
2026-04-29 05:11 46.05798 14.34685 10935 ft 282 kts 258°
2026-04-29 05:11 46.05445 14.31800 11067 ft 304 kts 261°
2026-04-29 05:11 46.05096 14.28705 11218 ft 324 kts 262°
2026-04-29 05:12 46.04725 14.25451 11703 ft 332 kts 261°
2026-04-29 05:12 46.04346 14.22154 12255 ft 337 kts 261°
2026-04-29 05:12 46.03958 14.18824 12914 ft 339 kts 262°
2026-04-29 05:12 46.03561 14.15453 13550 ft 342 kts 262°
2026-04-29 05:13 46.03161 14.12055 14143 ft 346 kts 262°
2026-04-29 05:13 46.02758 14.08632 14669 ft 349 kts 262°
2026-04-29 05:13 46.02347 14.05164 15195 ft 353 kts 262°
2026-04-29 05:13 46.01931 14.01669 15712 ft 356 kts 263°
2026-04-29 05:14 46.01508 13.98158 16254 ft 358 kts 262°
2026-04-29 05:14 46.01080 13.94611 16775 ft 361 kts 262°
2026-04-29 05:14 46.00652 13.91046 17321 ft 364 kts 262°
2026-04-29 05:14 46.00220 13.87443 17864 ft 366 kts 263°
2026-04-29 05:15 45.99784 13.83828 18417 ft 369 kts 263°
2026-04-29 05:15 45.99341 13.80167 18922 ft 372 kts 263°
2026-04-29 05:15 45.98892 13.76487 19453 ft 374 kts 262°
2026-04-29 05:15 45.98439 13.72794 19991 ft 377 kts 262°
2026-04-29 05:16 45.97981 13.69075 20516 ft 379 kts 262°
2026-04-29 05:16 45.97520 13.65331 21016 ft 381 kts 262°
2026-04-29 05:16 45.97055 13.61578 21502 ft 383 kts 261°
2026-04-29 05:16 45.96332 13.57921 21953 ft 388 kts 251°
2026-04-29 05:17 45.95299 13.54271 22405 ft 391 kts 250°
2026-04-29 05:17 45.94263 13.50640 22855 ft 394 kts 250°
2026-04-29 05:17 45.93221 13.46986 23307 ft 396 kts 250°
2026-04-29 05:17 45.92173 13.43316 23732 ft 399 kts 250°
2026-04-29 05:18 45.91120 13.39627 24103 ft 400 kts 250°
2026-04-29 05:18 45.90075 13.35963 24447 ft 402 kts 250°
2026-04-29 05:18 45.89014 13.32244 24792 ft 404 kts 250°
2026-04-29 05:18 45.87948 13.28522 25139 ft 405 kts 250°
2026-04-29 05:19 45.86868 13.24763 25484 ft 407 kts 250°
2026-04-29 05:19 45.85790 13.21016 25828 ft 408 kts 250°
2026-04-29 05:19 45.84703 13.17244 26165 ft 410 kts 250°
2026-04-29 05:19 45.83606 13.13450 26510 ft 412 kts 250°
2026-04-29 05:20 45.82510 13.09658 26836 ft 413 kts 250°
2026-04-29 05:20 45.81406 13.05838 27120 ft 415 kts 250°
2026-04-29 05:20 45.80297 13.02006 27401 ft 418 kts 250°
2026-04-29 05:20 45.79177 12.98146 27747 ft 418 kts 250°
2026-04-29 05:21 45.78056 12.94294 28198 ft 417 kts 250°
2026-04-29 05:21 45.76943 12.90483 28654 ft 415 kts 250°
2026-04-29 05:21 45.75827 12.86669 29104 ft 414 kts 250°
2026-04-29 05:21 45.74713 12.82875 29558 ft 412 kts 250°
2026-04-29 05:22 45.73603 12.79093 30016 ft 411 kts 251°
2026-04-29 05:22 45.72500 12.75338 30421 ft 409 kts 251°
2026-04-29 05:22 45.71400 12.71584 30816 ft 408 kts 251°
2026-04-29 05:22 45.70309 12.67856 31200 ft 406 kts 251°
2026-04-29 05:23 45.69218 12.64132 31604 ft 405 kts 251°
2026-04-29 05:23 45.68130 12.60425 31988 ft 403 kts 250°
2026-04-29 05:23 45.67046 12.56745 32377 ft 402 kts 250°
2026-04-29 05:23 45.65957 12.53064 32747 ft 401 kts 250°
2026-04-29 05:24 45.64872 12.49405 33136 ft 400 kts 250°
2026-04-29 05:24 45.63800 12.45795 33528 ft 399 kts 250°
2026-04-29 05:24 45.62718 12.42151 33919 ft 397 kts 250°
2026-04-29 05:24 45.61644 12.38533 34257 ft 396 kts 250°
2026-04-29 05:25 45.60567 12.34914 34550 ft 395 kts 250°
2026-04-29 05:25 45.59494 12.31314 34826 ft 395 kts 250°
2026-04-29 05:25 45.58414 12.27705 35031 ft 395 kts 250°
2026-04-29 05:26 45.56231 12.20417 35084 ft 406 kts 250°
2026-04-29 05:26 45.53987 12.12946 35084 ft 411 kts 250°
2026-04-29 05:27 45.51728 12.05452 35077 ft 412 kts 250°
2026-04-29 05:27 45.48335 11.94181 35078 ft 412 kts 249°
2026-04-29 05:28 45.46058 11.86680 35075 ft 413 kts 249°
2026-04-29 05:28 45.43769 11.79179 35077 ft 413 kts 249°
2026-04-29 05:29 45.41477 11.71661 35081 ft 414 kts 249°
2026-04-29 05:29 45.39185 11.64157 35082 ft 414 kts 249°
2026-04-29 05:30 45.36887 11.56656 35070 ft 414 kts 249°
2026-04-29 05:30 45.34590 11.49196 35074 ft 414 kts 249°
2026-04-29 05:31 45.32271 11.41700 35082 ft 415 kts 249°
2026-04-29 05:31 45.29949 11.34206 35084 ft 415 kts 249°
2026-04-29 05:32 45.27604 11.26667 35079 ft 415 kts 249°
2026-04-29 05:32 45.25286 11.19217 35074 ft 415 kts 249°
2026-04-29 05:33 45.22956 11.11734 35059 ft 415 kts 248°
2026-04-29 05:33 45.20614 11.04254 35062 ft 415 kts 248°
2026-04-29 05:34 45.18261 10.96775 35080 ft 416 kts 248°
2026-04-29 05:34 45.15896 10.89285 35071 ft 416 kts 248°
2026-04-29 05:35 45.13532 10.81809 35068 ft 416 kts 248°
2026-04-29 05:35 45.11141 10.74349 35074 ft 417 kts 247°
2026-04-29 05:36 45.09042 10.68205 35080 ft 417 kts 246°
2026-04-29 05:36 45.06460 10.60854 35071 ft 418 kts 245°
2026-04-29 05:37 45.03887 10.53491 35076 ft 418 kts 246°
2026-04-29 05:37 45.01318 10.46108 35078 ft 418 kts 246°
2026-04-29 05:38 44.98756 10.38734 35084 ft 418 kts 246°
2026-04-29 05:38 44.96196 10.31360 35079 ft 418 kts 246°
2026-04-29 05:39 44.93618 10.23993 35095 ft 419 kts 245°
2026-04-29 05:39 44.91020 10.16622 35089 ft 419 kts 245°
2026-04-29 05:40 44.88427 10.09259 35093 ft 419 kts 245°
2026-04-29 05:40 44.85831 10.01896 35095 ft 420 kts 245°
2026-04-29 05:41 44.83230 9.94536 35097 ft 420 kts 245°
2026-04-29 05:41 44.80618 9.87170 35097 ft 420 kts 245°
2026-04-29 05:42 44.78008 9.79815 35101 ft 420 kts 245°
2026-04-29 05:42 44.75384 9.72467 35097 ft 421 kts 245°
2026-04-29 05:43 44.72753 9.65118 35104 ft 421 kts 245°
2026-04-29 05:43 44.70115 9.57767 35106 ft 421 kts 245°
2026-04-29 05:44 44.67486 9.50458 35106 ft 421 kts 245°
2026-04-29 05:44 44.64821 9.43065 35110 ft 422 kts 245°
2026-04-29 05:45 44.62162 9.35726 35105 ft 422 kts 245°
2026-04-29 05:45 44.59513 9.28420 35094 ft 422 kts 245°
2026-04-29 05:46 44.56850 9.21074 35086 ft 423 kts 245°
2026-04-29 05:46 44.54156 9.13682 35084 ft 423 kts 244°
2026-04-29 05:47 44.51464 9.06345 35085 ft 424 kts 244°
2026-04-29 05:47 44.48773 8.99004 35078 ft 424 kts 244°
2026-04-29 05:48 44.46077 8.91650 35078 ft 424 kts 244°
2026-04-29 05:48 44.43376 8.84314 35074 ft 424 kts 244°
2026-04-29 05:49 44.40665 8.76989 35072 ft 424 kts 244°
2026-04-29 05:49 44.37950 8.69667 35078 ft 424 kts 244°
2026-04-29 05:50 44.35246 8.62382 35079 ft 425 kts 244°
2026-04-29 05:50 44.32506 8.55013 35087 ft 425 kts 244°
2026-04-29 05:51 44.29777 8.47697 35080 ft 425 kts 244°
2026-04-29 05:51 44.27042 8.40384 35089 ft 425 kts 244°
2026-04-29 05:52 44.24293 8.33076 35105 ft 426 kts 244°
2026-04-29 05:52 44.21548 8.25804 35099 ft 426 kts 244°
2026-04-29 05:53 44.18791 8.18493 35099 ft 426 kts 244°
2026-04-29 05:53 44.16028 8.11185 35100 ft 426 kts 244°
2026-04-29 05:54 44.13263 8.03880 35091 ft 427 kts 244°
2026-04-29 05:54 44.10487 7.96573 35098 ft 427 kts 243°
2026-04-29 05:55 44.07706 7.89286 35096 ft 427 kts 243°
2026-04-29 05:55 44.04919 7.82006 35094 ft 427 kts 243°
2026-04-29 05:56 44.02134 7.74725 35083 ft 427 kts 244°
2026-04-29 05:56 43.99635 7.67249 35090 ft 426 kts 248°
2026-04-29 05:57 43.97369 7.59655 35085 ft 426 kts 249°
2026-04-29 05:57 43.95077 7.52076 35085 ft 426 kts 248°
2026-04-29 05:58 43.92707 7.44538 35073 ft 427 kts 247°
2026-04-29 05:58 43.90300 7.37005 35071 ft 427 kts 247°
2026-04-29 05:59 43.87895 7.29486 35061 ft 427 kts 247°
2026-04-29 05:59 43.85499 7.21964 35058 ft 427 kts 247°
2026-04-29 06:00 43.83104 7.14447 35057 ft 427 kts 247°
2026-04-29 06:00 43.80700 7.06936 35047 ft 427 kts 247°
2026-04-29 06:01 43.78300 6.99475 35056 ft 427 kts 247°
2026-04-29 06:01 43.75887 6.91979 35062 ft 427 kts 247°
2026-04-29 06:02 43.73474 6.84484 35077 ft 427 kts 247°
2026-04-29 06:02 43.71047 6.76993 35083 ft 427 kts 247°
2026-04-29 06:03 43.68608 6.69492 35091 ft 427 kts 247°
2026-04-29 06:03 43.66170 6.62006 35092 ft 428 kts 247°
2026-04-29 06:04 43.63723 6.54523 35069 ft 428 kts 247°
2026-04-29 06:04 43.61271 6.47045 35087 ft 428 kts 247°
2026-04-29 06:05 43.58810 6.39556 35085 ft 428 kts 246°
2026-04-29 06:05 43.56348 6.32078 35078 ft 429 kts 246°
2026-04-29 06:06 43.53882 6.24602 35076 ft 429 kts 246°
2026-04-29 06:06 43.51413 6.17120 35079 ft 429 kts 246°
2026-04-29 06:07 43.48934 6.09657 35074 ft 429 kts 246°
2026-04-29 06:07 43.46442 6.02199 35067 ft 429 kts 246°
2026-04-29 06:08 43.43958 5.94790 35074 ft 430 kts 246°
2026-04-29 06:08 43.41464 5.87323 35066 ft 430 kts 246°
2026-04-29 06:09 43.38960 5.79847 35067 ft 430 kts 246°
2026-04-29 06:09 43.36448 5.72386 35070 ft 430 kts 246°
2026-04-29 06:10 43.33926 5.64934 35069 ft 430 kts 246°
2026-04-29 06:10 43.31399 5.57484 35053 ft 431 kts 246°
2026-04-29 06:11 43.28871 5.50035 35036 ft 431 kts 246°
2026-04-29 06:11 43.26337 5.42574 35049 ft 431 kts 246°
2026-04-29 06:12 43.23793 5.35133 35046 ft 431 kts 246°
2026-04-29 06:12 43.21316 5.27652 35049 ft 431 kts 248°
2026-04-29 06:13 43.18981 5.20085 35040 ft 431 kts 248°
2026-04-29 06:13 43.16649 5.12500 35045 ft 432 kts 248°
2026-04-29 06:14 43.14291 5.05001 35035 ft 432 kts 248°
2026-04-29 06:14 43.11881 4.97414 35040 ft 432 kts 247°
2026-04-29 06:15 43.09487 4.89877 35046 ft 432 kts 247°
2026-04-29 06:15 43.07037 4.82362 35034 ft 433 kts 242°
2026-04-29 06:16 43.03394 4.75906 35043 ft 435 kts 224°
2026-04-29 06:16 42.98479 4.71043 35033 ft 437 kts 216°
2026-04-29 06:17 42.93438 4.66388 35042 ft 438 kts 216°
2026-04-29 06:17 42.88404 4.61714 35038 ft 438 kts 216°
2026-04-29 06:18 42.83358 4.57033 35039 ft 438 kts 216°
2026-04-29 06:18 42.80859 4.54722 35469 ft 430 kts 216°
2026-04-29 06:18 42.78399 4.52452 36025 ft 424 kts 216°
2026-04-29 06:19 42.75967 4.50210 36418 ft 420 kts 216°
2026-04-29 06:19 42.73556 4.47992 36739 ft 418 kts 216°
2026-04-29 06:19 42.71145 4.45777 37025 ft 417 kts 215°
2026-04-29 06:19 42.68749 4.43576 37284 ft 416 kts 215°
2026-04-29 06:20 42.66351 4.41372 37531 ft 415 kts 215°
2026-04-29 06:20 42.63958 4.39172 37777 ft 414 kts 215°
2026-04-29 06:20 42.61576 4.36984 37972 ft 414 kts 215°
2026-04-29 06:20 42.59184 4.34792 38014 ft 414 kts 215°
2026-04-29 06:21 42.54410 4.30423 38013 ft 414 kts 215°
2026-04-29 06:21 42.49629 4.26063 38013 ft 415 kts 215°
2026-04-29 06:22 42.44830 4.21701 38010 ft 415 kts 215°
2026-04-29 06:22 42.40068 4.17375 38015 ft 415 kts 215°
2026-04-29 06:23 42.35273 4.13014 38015 ft 416 kts 215°
2026-04-29 06:23 42.30468 4.08652 38012 ft 417 kts 214°
2026-04-29 06:24 42.25651 4.04294 38017 ft 417 kts 214°
2026-04-29 06:24 42.21290 3.99179 38020 ft 416 kts 232°
2026-04-29 06:25 42.18816 3.93595 38016 ft 416 kts 246°
2026-04-29 06:25 42.16509 3.86479 38016 ft 417 kts 246°
2026-04-29 06:26 42.14161 3.79333 38028 ft 417 kts 245°
2026-04-29 06:26 42.11802 3.72187 38020 ft 418 kts 245°
2026-04-29 06:27 42.09440 3.65023 38020 ft 418 kts 245°
2026-04-29 06:27 42.06416 3.58370 38020 ft 417 kts 234°
2026-04-29 06:28 42.03040 3.52014 38020 ft 418 kts 234°
2026-04-29 06:28 41.99663 3.45656 38021 ft 418 kts 234°
2026-04-29 06:29 41.96276 3.39305 38021 ft 418 kts 234°
2026-04-29 06:29 41.92884 3.32951 38013 ft 419 kts 234°
2026-04-29 06:30 41.87784 3.23418 38011 ft 419 kts 234°
2026-04-29 06:31 41.84377 3.17064 38017 ft 420 kts 234°
2026-04-29 06:31 41.80962 3.10713 38017 ft 420 kts 234°
2026-04-29 06:32 41.77557 3.04397 38028 ft 420 kts 234°
2026-04-29 06:32 41.74107 2.98010 38024 ft 421 kts 234°
2026-04-29 06:33 41.70677 2.91669 38016 ft 421 kts 234°
2026-04-29 06:33 41.67248 2.85327 38020 ft 421 kts 234°
2026-04-29 06:34 41.63825 2.79027 38011 ft 421 kts 234°
2026-04-29 06:34 41.60378 2.72702 38015 ft 421 kts 234°
2026-04-29 06:35 41.56918 2.66373 38023 ft 421 kts 234°
2026-04-29 06:35 41.53462 2.60060 38022 ft 421 kts 234°
2026-04-29 06:36 41.50005 2.53755 38015 ft 421 kts 234°
2026-04-29 06:36 41.46549 2.47454 38010 ft 421 kts 233°
2026-04-29 06:37 41.43077 2.41156 38003 ft 421 kts 233°
2026-04-29 06:37 41.39613 2.34869 37990 ft 421 kts 234°
2026-04-29 06:38 41.36151 2.28583 37987 ft 421 kts 233°
2026-04-29 06:38 41.32675 2.22310 37976 ft 421 kts 233°
2026-04-29 06:39 41.29189 2.16039 37974 ft 421 kts 233°
2026-04-29 06:39 41.25711 2.09785 37974 ft 421 kts 234°
2026-04-29 06:40 41.22238 2.03535 37971 ft 421 kts 234°
2026-04-29 06:40 41.18758 1.97296 37977 ft 421 kts 234°
2026-04-29 06:41 41.15263 1.91057 37983 ft 421 kts 233°
2026-04-29 06:41 41.11768 1.84834 38001 ft 421 kts 233°
2026-04-29 06:42 41.08275 1.78611 38002 ft 421 kts 234°
2026-04-29 06:42 41.04739 1.72437 37997 ft 421 kts 229°
2026-04-29 06:43 41.00815 1.66687 37994 ft 421 kts 228°
2026-04-29 06:43 40.96903 1.60974 37992 ft 421 kts 229°
2026-04-29 06:44 40.92972 1.55231 37994 ft 421 kts 229°
2026-04-29 06:44 40.89038 1.49490 37982 ft 422 kts 229°
2026-04-29 06:45 40.85091 1.43756 37983 ft 422 kts 229°
2026-04-29 06:45 40.81128 1.38008 37983 ft 423 kts 229°
2026-04-29 06:46 40.77169 1.32266 37983 ft 423 kts 229°
2026-04-29 06:46 40.73199 1.26531 37984 ft 424 kts 228°
2026-04-29 06:47 40.69224 1.20799 37986 ft 424 kts 229°
2026-04-29 06:47 40.65240 1.15059 37986 ft 424 kts 229°
2026-04-29 06:48 40.61253 1.09332 37984 ft 425 kts 229°
2026-04-29 06:48 40.57266 1.03592 37983 ft 425 kts 229°
2026-04-29 06:49 40.53273 0.97854 37979 ft 426 kts 228°
2026-04-29 06:49 40.49269 0.92125 37980 ft 426 kts 228°
2026-04-29 06:50 40.45245 0.86397 37975 ft 426 kts 228°
2026-04-29 06:50 40.41223 0.80679 37976 ft 427 kts 228°
2026-04-29 06:51 40.37193 0.74963 37983 ft 427 kts 228°
2026-04-29 06:51 40.33185 0.69274 37976 ft 428 kts 228°
2026-04-29 06:52 40.29104 0.63494 37972 ft 429 kts 228°
2026-04-29 06:52 40.25073 0.57798 37973 ft 430 kts 228°
2026-04-29 06:53 40.21004 0.52069 37978 ft 430 kts 227°
2026-04-29 06:53 40.16926 0.46346 37980 ft 430 kts 227°
2026-04-29 06:54 40.12842 0.40609 37988 ft 431 kts 228°
2026-04-29 06:54 40.08763 0.34886 38003 ft 430 kts 227°
2026-04-29 06:55 40.04680 0.29174 37988 ft 430 kts 227°
2026-04-29 06:55 40.00595 0.23474 37976 ft 430 kts 227°
2026-04-29 06:56 39.96511 0.17773 37977 ft 430 kts 227°
2026-04-29 06:56 39.92418 0.12062 37978 ft 431 kts 227°
2026-04-29 06:57 39.88325 0.06368 37978 ft 431 kts 227°
2026-04-29 06:57 39.84222 0.00685 37973 ft 431 kts 227°
2026-04-29 06:58 39.80113 -0.04990 37981 ft 431 kts 226°
2026-04-29 06:58 39.75997 -0.10674 37966 ft 431 kts 226°
2026-04-29 06:59 39.71911 -0.16306 37969 ft 431 kts 226°
2026-04-29 06:59 39.67798 -0.21977 37971 ft 432 kts 226°
2026-04-29 07:00 39.63650 -0.27677 37969 ft 432 kts 226°
2026-04-29 07:00 39.59545 -0.33303 37972 ft 432 kts 226°
2026-04-29 07:01 39.55414 -0.38953 37967 ft 432 kts 226°
2026-04-29 07:01 39.53356 -0.41765 37712 ft 430 kts 226°
2026-04-29 07:01 39.51314 -0.44567 37326 ft 425 kts 226°
2026-04-29 07:01 39.49293 -0.47349 36984 ft 421 kts 226°
2026-04-29 07:02 39.47325 -0.50066 37228 ft 411 kts 226°
2026-04-29 07:02 39.45366 -0.52766 37504 ft 411 kts 226°
2026-04-29 07:02 39.43412 -0.55448 37775 ft 410 kts 226°
2026-04-29 07:02 39.41446 -0.58136 37927 ft 412 kts 226°
2026-04-29 07:03 39.39461 -0.60846 37949 ft 417 kts 226°
2026-04-29 07:03 39.35449 -0.66316 37959 ft 421 kts 226°
2026-04-29 07:04 39.31422 -0.71806 37959 ft 421 kts 226°
2026-04-29 07:04 39.27393 -0.77294 37971 ft 421 kts 226°
2026-04-29 07:05 39.23378 -0.82792 37964 ft 420 kts 226°
2026-04-29 07:05 39.19367 -0.88280 37973 ft 421 kts 226°
2026-04-29 07:06 39.15349 -0.93769 37972 ft 421 kts 226°
2026-04-29 07:06 39.11328 -0.99261 37969 ft 422 kts 226°
2026-04-29 07:07 39.07293 -1.04757 37978 ft 422 kts 226°
2026-04-29 07:07 39.03262 -1.10242 37977 ft 422 kts 226°
2026-04-29 07:08 38.99228 -1.15724 37987 ft 422 kts 226°
2026-04-29 07:08 38.95193 -1.21204 37982 ft 422 kts 226°
2026-04-29 07:09 38.91158 -1.26678 37970 ft 422 kts 226°
2026-04-29 07:09 38.87111 -1.32153 37965 ft 422 kts 226°
2026-04-29 07:10 38.83069 -1.37584 37962 ft 420 kts 226°
2026-04-29 07:10 38.79036 -1.42998 37963 ft 420 kts 226°
2026-04-29 07:11 38.74998 -1.48413 37964 ft 421 kts 226°
2026-04-29 07:11 38.70947 -1.53835 37977 ft 421 kts 226°
2026-04-29 07:12 38.66898 -1.59229 37970 ft 420 kts 229°
2026-04-29 07:12 38.65242 -1.62285 37943 ft 420 kts 244°
2026-04-29 07:12 38.64505 -1.64587 37941 ft 421 kts 249°
2026-04-29 07:13 38.62542 -1.71661 37924 ft 423 kts 250°
2026-04-29 07:13 38.60280 -1.79937 37935 ft 425 kts 250°
2026-04-29 07:14 38.58315 -1.87061 37945 ft 425 kts 250°
2026-04-29 07:14 38.56656 -1.93037 37954 ft 426 kts 250°
2026-04-29 07:15 38.54667 -2.00159 37959 ft 426 kts 250°
2026-04-29 07:15 38.52635 -2.07256 37959 ft 425 kts 245°
2026-04-29 07:16 38.49470 -2.13585 37960 ft 424 kts 232°
2026-04-29 07:16 38.45818 -2.19500 37956 ft 424 kts 232°
2026-04-29 07:17 38.42191 -2.25395 37959 ft 425 kts 232°
2026-04-29 07:17 38.38537 -2.31309 37965 ft 425 kts 232°
2026-04-29 07:18 38.34751 -2.37067 37968 ft 424 kts 227°
2026-04-29 07:18 38.30695 -2.42515 37967 ft 424 kts 227°
2026-04-29 07:19 38.26638 -2.47969 37963 ft 424 kts 227°
2026-04-29 07:19 38.22586 -2.53406 37965 ft 423 kts 227°
2026-04-29 07:20 38.18529 -2.58831 37964 ft 423 kts 227°
2026-04-29 07:20 38.14462 -2.64258 37954 ft 423 kts 227°
2026-04-29 07:21 38.10405 -2.69671 37961 ft 423 kts 227°
2026-04-29 07:21 38.06344 -2.75078 37957 ft 423 kts 227°
2026-04-29 07:22 38.02300 -2.80450 37957 ft 423 kts 227°
2026-04-29 07:22 37.98203 -2.85874 37957 ft 423 kts 227°
2026-04-29 07:23 37.94132 -2.91255 37956 ft 423 kts 227°
2026-04-29 07:23 37.90063 -2.96639 37946 ft 423 kts 227°
2026-04-29 07:24 37.85982 -3.02028 37952 ft 424 kts 227°
2026-04-29 07:24 37.81929 -3.07370 37946 ft 423 kts 228°
2026-04-29 07:25 37.77853 -3.12737 37955 ft 423 kts 228°
2026-04-29 07:25 37.73780 -3.18096 37957 ft 423 kts 228°
2026-04-29 07:26 37.69697 -3.23436 37955 ft 422 kts 228°
2026-04-29 07:26 37.65613 -3.28763 37945 ft 422 kts 229°
2026-04-29 07:27 37.61535 -3.34098 37958 ft 422 kts 229°
2026-04-29 07:27 37.57460 -3.39421 37959 ft 422 kts 229°
2026-04-29 07:28 37.53372 -3.44740 37963 ft 422 kts 229°
2026-04-29 07:28 37.49301 -3.50040 37966 ft 421 kts 229°
2026-04-29 07:29 37.45234 -3.55320 37971 ft 420 kts 229°
2026-04-29 07:29 37.41166 -3.60578 37947 ft 419 kts 229°
2026-04-29 07:30 37.37094 -3.65837 37953 ft 419 kts 229°
2026-04-29 07:30 37.33030 -3.71083 37958 ft 419 kts 229°
2026-04-29 07:31 37.26933 -3.78940 37958 ft 418 kts 229°
2026-04-29 07:31 37.22872 -3.84167 37961 ft 418 kts 229°
2026-04-29 07:32 37.18832 -3.89359 37972 ft 418 kts 229°
2026-04-29 07:32 37.14741 -3.94602 37956 ft 418 kts 229°
2026-04-29 07:33 37.10670 -3.99798 37960 ft 418 kts 229°
2026-04-29 07:33 37.06598 -4.04995 37960 ft 418 kts 229°
2026-04-29 07:34 37.02528 -4.10189 37958 ft 418 kts 229°
2026-04-29 07:34 36.98474 -4.15352 37955 ft 418 kts 229°
2026-04-29 07:35 36.94396 -4.20535 37957 ft 418 kts 229°
2026-04-29 07:35 36.90320 -4.25717 37942 ft 418 kts 230°
2026-04-29 07:36 36.86240 -4.30894 37953 ft 418 kts 229°
2026-04-29 07:36 36.82126 -4.36048 37961 ft 420 kts 226°
2026-04-29 07:37 36.77300 -4.40260 37967 ft 426 kts 217°
2026-04-29 07:37 36.72337 -4.44199 38349 ft 421 kts 217°
2026-04-29 07:38 36.69870 -4.46160 38623 ft 419 kts 217°
2026-04-29 07:38 36.67417 -4.48104 38836 ft 418 kts 217°
2026-04-29 07:38 36.62488 -4.52013 38946 ft 420 kts 217°
2026-04-29 07:39 36.57561 -4.55916 38946 ft 420 kts 217°
2026-04-29 07:39 36.52641 -4.59812 38928 ft 419 kts 217°
2026-04-29 07:40 36.47723 -4.63695 38928 ft 418 kts 217°
2026-04-29 07:40 36.42813 -4.67558 38932 ft 418 kts 217°
2026-04-29 07:41 36.37899 -4.71422 38926 ft 419 kts 218°
2026-04-29 07:41 36.32978 -4.75288 38937 ft 419 kts 218°
2026-04-29 07:42 36.28054 -4.79156 38958 ft 419 kts 218°
2026-04-29 07:42 36.23122 -4.83033 38951 ft 419 kts 218°
2026-04-29 07:43 36.18195 -4.86896 38954 ft 419 kts 217°
2026-04-29 07:43 36.13262 -4.90746 38941 ft 419 kts 218°
2026-04-29 07:44 36.08342 -4.94630 38948 ft 419 kts 218°
2026-04-29 07:44 36.03445 -4.98516 38959 ft 418 kts 218°
2026-04-29 07:45 35.98593 -5.02365 38966 ft 417 kts 218°
2026-04-29 07:45 35.93710 -5.06217 38970 ft 416 kts 218°
2026-04-29 07:46 35.88795 -5.10075 38971 ft 416 kts 218°
2026-04-29 07:46 35.83944 -5.13884 38955 ft 415 kts 218°
2026-04-29 07:47 35.79036 -5.17650 38953 ft 416 kts 217°
2026-04-29 07:47 35.74069 -5.21308 38951 ft 416 kts 216°
2026-04-29 07:48 35.69101 -5.24957 38946 ft 416 kts 217°
2026-04-29 07:48 35.64140 -5.28628 38945 ft 415 kts 217°
2026-04-29 07:49 35.59205 -5.32315 38939 ft 414 kts 218°
2026-04-29 07:49 35.54493 -5.36324 38946 ft 411 kts 222°
2026-04-29 07:50 35.49932 -5.40535 38951 ft 409 kts 222°
2026-04-29 07:50 35.45365 -5.44697 38954 ft 409 kts 221°
2026-04-29 07:51 35.40760 -5.48781 38959 ft 409 kts 221°
2026-04-29 07:51 35.36147 -5.52842 38943 ft 408 kts 221°
2026-04-29 07:52 35.31566 -5.56876 38962 ft 408 kts 221°
2026-04-29 07:52 35.26971 -5.60933 38967 ft 407 kts 221°
2026-04-29 07:53 35.22379 -5.64981 38966 ft 407 kts 221°
2026-04-29 07:53 35.17789 -5.69021 38968 ft 407 kts 221°
2026-04-29 07:54 35.13197 -5.73057 38978 ft 407 kts 221°
2026-04-29 07:54 35.08599 -5.77082 38959 ft 405 kts 221°
2026-04-29 07:55 35.04018 -5.81083 38960 ft 404 kts 221°
2026-04-29 07:55 34.99452 -5.85082 38966 ft 404 kts 221°
2026-04-29 07:56 34.94888 -5.89074 38965 ft 404 kts 221°
2026-04-29 07:56 34.90312 -5.93061 38966 ft 403 kts 221°
2026-04-29 07:57 34.85898 -5.97242 38966 ft 401 kts 224°
2026-04-29 07:57 34.81627 -6.01598 38952 ft 401 kts 225°
2026-04-29 07:58 34.77348 -6.05942 38959 ft 401 kts 224°
2026-04-29 07:58 34.73022 -6.10241 38963 ft 401 kts 224°
2026-04-29 07:59 34.68693 -6.14500 38966 ft 400 kts 224°
2026-04-29 07:59 34.64371 -6.18751 38969 ft 400 kts 224°
2026-04-29 08:00 34.60056 -6.22998 38970 ft 399 kts 224°
2026-04-29 08:00 34.55748 -6.27242 38947 ft 399 kts 224°
2026-04-29 08:01 34.51444 -6.31441 38953 ft 401 kts 220°
2026-04-29 08:01 34.46355 -6.34378 38959 ft 414 kts 202°
2026-04-29 08:02 34.40814 -6.36310 38852 ft 415 kts 202°
2026-04-29 08:02 34.38945 -6.36965 38685 ft 413 kts 202°
2026-04-29 08:02 34.35306 -6.38242 38027 ft 410 kts 202°
2026-04-29 08:03 34.33449 -6.38893 37711 ft 409 kts 202°
2026-04-29 08:03 34.30765 -6.39834 37180 ft 408 kts 202°
2026-04-29 08:03 34.28037 -6.40792 36664 ft 408 kts 202°
2026-04-29 08:03 34.25312 -6.41752 36041 ft 411 kts 202°
2026-04-29 08:04 34.22555 -6.42724 35388 ft 414 kts 202°
2026-04-29 08:04 34.19769 -6.43706 34654 ft 420 kts 202°
2026-04-29 08:04 34.16965 -6.44687 34140 ft 419 kts 202°
2026-04-29 08:04 34.14161 -6.45657 33617 ft 418 kts 202°
2026-04-29 08:05 34.11378 -6.46617 33096 ft 415 kts 202°
2026-04-29 08:05 34.08605 -6.47575 32592 ft 413 kts 202°
2026-04-29 08:05 34.05848 -6.48531 32070 ft 411 kts 202°
2026-04-29 08:05 34.03110 -6.49485 31532 ft 411 kts 202°
2026-04-29 08:06 34.00369 -6.50495 30983 ft 410 kts 206°
2026-04-29 08:06 33.97789 -6.51895 30448 ft 406 kts 214°
2026-04-29 08:06 33.95428 -6.53729 29864 ft 401 kts 222°
2026-04-29 08:06 33.93342 -6.55925 29273 ft 395 kts 229°
2026-04-29 08:07 33.91391 -6.58225 28744 ft 392 kts 228°
2026-04-29 08:07 33.89443 -6.60511 28185 ft 390 kts 228°
2026-04-29 08:07 33.87509 -6.62773 27644 ft 388 kts 228°
2026-04-29 08:07 33.85574 -6.65031 27100 ft 386 kts 228°
2026-04-29 08:08 33.83647 -6.67284 26572 ft 385 kts 228°
2026-04-29 08:08 33.81732 -6.69526 26029 ft 385 kts 227°
2026-04-29 08:08 33.79811 -6.71775 25488 ft 385 kts 227°
2026-04-29 08:08 33.77886 -6.74035 24958 ft 390 kts 227°
2026-04-29 08:09 33.75937 -6.76343 24428 ft 396 kts 227°
2026-04-29 08:09 33.73977 -6.78679 23924 ft 396 kts 227°
2026-04-29 08:09 33.72031 -6.81004 23409 ft 394 kts 228°
2026-04-29 08:09 33.70091 -6.83329 22819 ft 393 kts 227°
2026-04-29 08:10 33.68161 -6.85645 22236 ft 391 kts 227°
2026-04-29 08:10 33.66249 -6.87945 21672 ft 389 kts 227°
2026-04-29 08:10 33.64337 -6.90245 21114 ft 388 kts 227°
2026-04-29 08:10 33.62430 -6.92539 20563 ft 387 kts 227°
2026-04-29 08:11 33.60534 -6.94821 20029 ft 386 kts 227°
2026-04-29 08:11 33.58620 -6.97086 19502 ft 386 kts 224°
2026-04-29 08:11 33.56370 -6.98846 18982 ft 391 kts 207°
2026-04-29 08:11 33.53751 -6.99758 18474 ft 393 kts 194°
2026-04-29 08:12 33.51068 -7.00378 17933 ft 391 kts 194°
2026-04-29 08:12 33.48403 -7.00970 17354 ft 389 kts 193°
2026-04-29 08:12 33.45746 -7.01553 16787 ft 386 kts 193°
2026-04-29 08:12 33.43109 -7.02133 16235 ft 383 kts 193°
2026-04-29 08:13 33.40503 -7.02710 15690 ft 380 kts 193°
2026-04-29 08:13 33.37946 -7.03278 15158 ft 376 kts 193°
2026-04-29 08:13 33.35357 -7.03855 14629 ft 372 kts 193°
2026-04-29 08:13 33.32819 -7.04426 14111 ft 369 kts 192°
2026-04-29 08:14 33.30341 -7.04983 13584 ft 365 kts 192°
2026-04-29 08:14 33.27825 -7.05546 13003 ft 362 kts 192°
2026-04-29 08:14 33.25356 -7.06099 12439 ft 359 kts 192°
2026-04-29 08:14 33.22916 -7.06685 11877 ft 355 kts 197°
2026-04-29 08:15 33.20695 -7.07879 11340 ft 350 kts 214°
2026-04-29 08:15 33.18943 -7.09786 10961 ft 341 kts 232°
2026-04-29 08:15 33.17737 -7.12225 10509 ft 336 kts 249°
2026-04-29 08:15 33.17195 -7.14845 10377 ft 323 kts 259°
2026-04-29 08:16 33.16796 -7.17469 10245 ft 311 kts 259°
2026-04-29 08:16 33.16410 -7.19952 10132 ft 299 kts 259°
2026-04-29 08:16 33.16036 -7.22327 9968 ft 291 kts 258°
2026-04-29 08:16 33.15660 -7.24701 9802 ft 288 kts 258°
2026-04-29 08:17 33.15287 -7.27061 9267 ft 293 kts 258°
2026-04-29 08:17 33.14908 -7.29459 8992 ft 288 kts 258°
2026-04-29 08:17 33.14544 -7.31772 8642 ft 285 kts 258°
2026-04-29 08:17 33.14183 -7.34075 8029 ft 282 kts 258°
2026-04-29 08:18 33.13824 -7.36370 7432 ft 280 kts 258°
2026-04-29 08:18 33.13467 -7.38644 6853 ft 277 kts 257°
2026-04-29 08:18 33.13110 -7.40902 6335 ft 277 kts 257°
2026-04-29 08:18 33.12753 -7.43148 6021 ft 275 kts 257°
2026-04-29 08:19 33.12391 -7.45421 5294 ft 283 kts 258°
2026-04-29 08:19 33.12083 -7.47718 4787 ft 276 kts 268°
2026-04-29 08:19 33.12573 -7.49831 4601 ft 260 kts 304°
2026-04-29 08:19 33.13902 -7.51132 4472 ft 243 kts 340°
2026-04-29 08:20 33.15495 -7.51602 4367 ft 231 kts 346°
2026-04-29 08:20 33.17020 -7.52053 4256 ft 221 kts 343°
2026-04-29 08:20 33.18483 -7.52541 4024 ft 217 kts 342°
2026-04-29 08:20 33.19934 -7.53037 3750 ft 215 kts 342°
2026-04-29 08:21 33.21363 -7.53525 3472 ft 213 kts 343°
2026-04-29 08:21 33.22767 -7.54004 3220 ft 205 kts 342°
2026-04-29 08:21 33.24094 -7.54457 2931 ft 193 kts 343°
2026-04-29 08:21 33.25337 -7.54881 2686 ft 177 kts 343°
2026-04-29 08:22 33.26441 -7.55258 2465 ft 155 kts 342°
2026-04-29 08:22 33.27441 -7.55600 2265 ft 146 kts 342°
2026-04-29 08:22 33.28407 -7.55931 2071 ft 142 kts 341°
2026-04-29 08:22 33.29352 -7.56254 1886 ft 141 kts 343°
2026-04-29 08:23 33.30293 -7.56576 1697 ft 140 kts 343°
2026-04-29 08:23 33.31232 -7.56897 1505 ft 141 kts 343°
2026-04-29 08:23 33.32171 -7.57219 1322 ft 140 kts 342°
2026-04-29 08:23 33.33108 -7.57537 1123 ft 140 kts 343°
2026-04-29 08:24 33.34032 -7.57848 953 ft 140 kts 342°
2026-04-29 08:24 33.34970 -7.58171 753 ft 140 kts 344°
2026-04-29 08:24 33.35872 -7.58484 655 ft 124 kts 343°
2026-04-29 08:24 33.36582 -7.58723 652 ft 83 kts 344°
2026-04-29 08:25 33.37023 -7.58881 652 ft 56 kts 342°
2026-04-29 08:25 33.37356 -7.58995 651 ft 41 kts 345°
2026-04-29 08:25 33.37582 -7.59072 650 ft 30 kts 344°
2026-04-29 08:25 33.37758 -7.59128 645 ft 14 kts 351°
2026-04-29 08:26 33.37821 -7.59078 645 ft 11 kts 72°
2026-04-29 08:26 33.37839 -7.58999 650 ft 9 kts 75°
2026-04-29 08:26 33.37854 -7.58932 652 ft 8 kts 73°
2026-04-29 08:26 33.37873 -7.58861 652 ft 10 kts 72°
2026-04-29 08:27 33.37853 -7.58806 653 ft 9 kts 160°
2026-04-29 08:27 33.37786 -7.58783 653 ft 11 kts 165°
2026-04-29 08:27 33.37703 -7.58755 655 ft 14 kts 164°
2026-04-29 08:27 33.37602 -7.58721 653 ft 16 kts 163°
2026-04-29 08:28 33.37484 -7.58681 653 ft 19 kts 164°
2026-04-29 08:28 33.37348 -7.58636 654 ft 22 kts 164°
2026-04-29 08:28 33.37197 -7.58582 653 ft 24 kts 162°
2026-04-29 08:28 33.37030 -7.58524 653 ft 24 kts 165°
2026-04-29 08:29 33.36927 -7.58489 653 ft 8 kts 166°
2026-04-29 08:29 33.36898 -7.58440 653 ft 9 kts 83°
2026-04-29 08:29 33.36917 -7.58358 653 ft 11 kts 75°
2026-04-29 08:29 33.36939 -7.58259 653 ft 10 kts 75°
2026-04-29 08:30 33.36992 -7.58235 653 ft 10 kts 347°
2026-04-29 08:30 33.37165 -7.58291 653 ft 16 kts 344°
2026-04-29 08:30 33.37279 -7.58330 653 ft 18 kts 344°
2026-04-29 08:31 33.37409 -7.58371 655 ft 21 kts 344°
2026-04-29 08:31 33.37501 -7.58392 653 ft 4 kts 41°
2026-04-29 08:31 33.37518 -7.58354 653 ft 2 kts 66°
2026-04-29 08:31 33.37527 -7.58330 654 ft 4 kts 67°
2026-04-29 08:32 33.37534 -7.58311 655 ft 1 kts 67°
2026-04-29 08:32 33.37534 -7.58310 655 ft 0 kts 67°